Location: ????????
(55.8351°N, 38.7040°E)
Time: 08:34:58
(UTC+00:00)

Meteor 1-28 Rocket - Pass Details

Date: 14 April 2024
Orbit: 475 x 492 km, 97.5° (Epoch: 19 May)

Event Time Altitude Azimuth Distance (km) Brightness Sun altitude
Exits shadow 00:42:15 22° 241° (WSW) 1,143 4.3 -13.0°
Maximum altitude 00:43:16 25° 266° (W) 1,056 4.3 -12.9°
Drops below altitude 10° 00:46:21 10° 323° (NW) 1,716 5.9 -12.6°
Sets 00:48:44 0° 337° (NNW) 2,605 7.0 -12.3°
